2006,12,01,00,05,-2.41,1,-0.73,1,-2.43,1,19.83,1,101.8,1,19.82,1,3.19,1,235.7,1,5.33,1,1017.8,1,12.68,1,165.3,1
2006,12,01,00,10,-2.34,1,-0.67,1,-2.34,1,19.82,1,101.8,1,19.81,1,3.91,1,235.5,1,6.47,1,1017.7,1,12.67,1,165.08,1
2006,12,01,00,15,-1.96,1,-0.5,1,-2.02,1,19.8,1,101.7,1,19.79,1,3.94,1,236.8,1,6.47,1,1017.6,1,12.67,1,164.78,1
2006,12,01,00,20,-1.55,1,-0.53,1,-1.68,1,19.75,1,101.9,1,19.78,1,3.12,1,229.8,1,4.95,1,1017.6,1,12.67,1,164.42,1
2006,12,01,00,25,-1.3,1,-0.44,1,-1.35,1,19.72,1,102,1,19.76,1,3.18,1,233.6,1,4.76,1,1017.5,1,12.67,1,163.99,1
2006,12,01,00,30,-1.3,1,-0.44,1,-1.28,1,19.71,1,102.1,1,19.74,1,2.96,1,235.8,1,4.95,1,1017.5,1,12.67,1,163.5,1
2006,12,01,00,35,-1.3,1,-0.41,1,-1.32,1,19.72,1,102.2,1,19.74,1,3.96,1,237.6,1,6.86,1,1017.4,1,12.67,1,162.96,1
2006,12,01,00,40,-1.29,1,-0.4,1,-1.26,1,19.75,1,102.1,1,19.72,1,3.85,1,237.1,1,6.28,1,1017.4,1,12.67,1,162.36,1
2006,12,01,00,45,-1.09,1,-0.32,1,-1.03,1,19.82,1,101.8,1,19.72,1,3.65,1,232.5,1,6.28,1,1017.3,1,12.67,1,161.72,1
2006,12,01,00,50,-1.21,1,-0.41,1,-1.2,1,19.81,1,101.7,1,19.72,1,3.52,1,229.4,1,7.43,1,1017.2,1,12.67,1,161.04,1
2006,12,01,00,55,-1.18,1,-0.41,1,-1.16,1,19.79,1,101.7,1,19.7,1,3.68,1,229.5,1,6.28,1,1017.1,1,12.67,1,160.33,1
2006,12,01,01,00,-1.6,1,-0.48,1,-1.61,1,19.75,1,101.7,1,19.7,1,3.47,1,233.2,1,6.09,1,1017,1,12.67,1,159.58,1
2006,12,01,01,05,-1.84,1,-0.74,1,-1.79,1,19.7,1,101.7,1,19.7,1,3.1,1,233.4,1,5.33,1,1017,1,12.66,1,158.8,1
2006,12,01,01,10,-1.6,1,-0.68,1,-1.64,1,19.66,1,101.6,1,19.7,1,3.57,1,232.2,1,5.33,1,1016.9,1,12.66,1,158,1
2006,12,01,01,15,-1.72,1,-0.75,1,-1.72,1,19.62,1,101.6,1,19.67,1,3.14,1,233.4,1,4.76,1,1016.9,1,12.66,1,157.17,1
2006,12,01,01,20,-2.15,1,-0.83,1,-2.29,1,19.58,1,101.6,1,19.67,1,3.54,1,232.4,1,6.28,1,1016.8,1,12.66,1,156.33,1
2006,12,01,01,25,-2.52,1,-0.87,1,-2.44,1,19.56,1,101.6,1,19.65,1,3.18,1,231.2,1,4.76,1,1016.9,1,12.66,1,155.46,1
2006,12,01,01,30,-2.6,1,-1.14,1,-2.44,1,19.48,1,101.8,1,19.66,1,2.88,1,227.3,1,4,1,1016.9,1,12.63,1,154.58,1
2006,12,01,01,35,-2.6,1,-1.12,1,-2.49,1,19.43,1,102,1,19.67,1,2.92,1,229.1,1,4.57,1,1016.8,1,12.65,1,153.69,1
2006,12,01,01,40,-2.6,1,-1.09,1,-2.47,1,19.41,1,102,1,19.64,1,2.99,1,230.4,1,4.95,1,1016.8,1,12.66,1,152.78,1
2006,12,01,01,45,-2.6,1,-0.96,1,-2.46,1,19.37,1,102.2,1,19.6,1,3.39,1,228.7,1,5.33,1,1016.7,1,12.66,1,151.86,1
2006,12,01,01,50,-2.6,1,-0.81,1,-2.44,1,19.38,1,102.2,1,19.55,1,3.07,1,230.9,1,7.05,1,1016.7,1,12.66,1,150.93,1
2006,12,01,01,55,-2.6,1,-0.8,1,-2.44,1,19.37,1,102.2,1,19.5,1,3.2,1,231.1,1,5.52,1,1016.7,1,12.65,1,149.99,1
2006,12,01,02,00,-2.48,1,-0.73,1,-2.44,1,19.35,1,102.3,1,19.44,1,3.12,1,228.7,1,5.71,1,1016.7,1,12.65,1,149.04,1
2006,12,01,02,05,-2.6,1,-0.81,1,-2.44,1,19.33,1,102.6,1,19.39,1,2.98,1,232.9,1,4.95,1,1016.7,1,12.65,1,148.09,1
2006,12,01,02,10,-2.6,1,-0.85,1,-2.44,1,19.31,1,102.7,1,19.35,1,2.64,1,232.8,1,4,1,1016.7,1,12.65,1,147.13,1
2006,12,01,02,15,-2.6,1,-1.07,1,-2.63,1,19.23,1,102.9,1,19.29,1,2.26,1,220.1,1,3.24,1,1016.6,1,12.65,1,146.16,1
2006,12,01,02,20,-2.6,1,-1.21,1,-2.48,1,19.14,1,103.3,1,19.25,1,2.08,1,225.2,1,3.81,1,1016.6,1,12.65,1,145.19,1
2006,12,01,02,25,-2.6,1,-1.41,1,-2.98,1,19.06,1,103.5,1,19.2,1,1.91,1,231.4,1,2.86,1,1016.6,1,12.65,1,144.21,1
2006,12,01,02,30,-2.61,1,-1.45,1,-2.73,1,19.01,1,103.8,1,19.15,1,2.01,1,230.1,1,3.43,1,1016.6,1,12.65,1,143.23,1
2006,12,01,02,35,-2.58,1,-1.08,1,-2.44,1,18.99,1,104.1,1,19.09,1,2.63,1,214,1,4.57,1,1016.5,1,12.65,1,142.24,1
2006,12,01,02,40,-1.97,1,-0.51,1,-2.36,1,18.98,1,104.3,1,19.05,1,2.72,1,213.8,1,4.76,1,1016.5,1,12.64,1,141.25,1
2006,12,01,02,45,-2.2,1,-0.94,1,-2.42,1,18.85,1,104.3,1,19,1,2.7,1,217.3,1,4.95,1,1016.5,1,12.64,1,140.26,1
2006,12,01,02,50,-2.55,1,-1.21,1,-2.44,1,18.74,1,104.7,1,18.96,1,3.1,1,214.4,1,4.76,1,1016.4,1,12.64,1,139.27,1
2006,12,01,02,55,-2.59,1,-1.41,1,-2.44,1,18.63,1,105,1,18.91,1,3.03,1,219.6,1,4.76,1,1016.4,1,12.64,1,138.27,1
2006,12,01,03,00,-2.6,1,-1.45,1,-2.45,1,18.57,1,105.2,8,18.87,1,3.19,1,221,1,5.33,1,1016.2,1,12.64,1,137.27,1
2006,12,01,03,05,-2.58,1,-1.16,1,-2.44,1,18.54,1,105.3,8,18.82,1,3.06,1,224,1,5.14,1,1016.2,1,12.64,1,136.27,1
2006,12,01,03,10,-2.6,1,-1.19,1,-2.44,1,18.52,1,105.4,8,18.78,1,2.49,1,227.5,1,4.57,1,1016.2,1,12.64,1,135.26,1
2006,12,01,03,15,-2.6,1,-1.17,1,-2.44,1,18.49,1,105.4,8,18.74,1,2.75,1,219.8,1,4.95,1,1016.1,1,12.64,1,134.26,1
2006,12,01,03,20,-2.6,1,-1.05,1,-2.44,1,18.47,1,105.6,8,18.7,1,2.84,1,226.2,1,4.95,1,1016,1,12.64,1,133.26,1
2006,12,01,03,25,-2.2,1,-0.52,1,-2.41,1,18.53,1,105.6,8,18.65,1,3.24,1,217.1,1,4.57,1,1016,1,12.64,1,132.25,1
2006,12,01,03,30,-2.18,1,-0.47,1,-2.44,1,18.56,1,105.7,8,18.6,1,2.85,1,224.4,1,4.57,1,1016,1,12.64,1,131.24,1
2006,12,01,03,35,-2,1,-0.41,1,-2.41,1,18.64,1,105.8,8,18.56,1,2.95,1,228.4,1,5.52,1,1015.9,1,12.63,1,130.24,1
2006,12,01,03,40,-1.81,1,-0.41,1,-2.23,1,18.71,1,105.8,8,18.52,1,2.96,1,229.6,1,5.52,1,1015.8,1,12.63,1,129.23,1
2006,12,01,03,45,-1.94,1,-0.41,1,-2.36,1,18.74,1,105.8,8,18.5,1,2.9,1,228.4,1,5.71,1,1015.8,1,12.63,1,128.22,1
2006,12,01,03,50,-1.76,1,-0.39,1,-2.01,1,18.79,1,105.8,8,18.47,1,3.65,1,223.1,1,6.86,1,1015.7,1,12.63,1,127.22,1
2006,12,01,03,55,-1.83,1,-0.41,1,-2.26,1,18.8,1,105.7,8,18.45,1,3.38,1,218.6,1,5.9,1,1015.7,1,12.63,1,126.21,1
2006,12,01,04,00,-1.9,1,-0.42,1,-2.34,1,18.81,1,105.8,8,18.42,1,2.99,1,228,1,4.57,1,1015.7,1,12.63,1,125.2,1
2006,12,01,04,05,-2.49,1,-0.77,1,-2.44,1,18.79,1,105.8,8,18.41,1,2.52,1,226.8,1,4.76,1,1015.6,1,12.63,1,124.2,1
2006,12,01,04,10,-2.18,1,-0.67,1,-2.43,1,18.81,1,106,8,18.4,1,2.84,1,227.3,1,4.95,1,1015.5,1,12.63,1,123.19,1
2006,12,01,04,15,-1.74,1,-0.41,1,-2.2,1,18.88,1,106,8,18.39,1,3.21,1,221.7,1,5.14,1,1015.4,1,12.63,1,122.19,1
2006,12,01,04,20,-1.74,1,-0.22,1,-1.86,1,18.92,1,106,8,18.39,1,3.58,1,214.7,1,6.28,1,1015.3,1,12.63,1,121.18,1
2006,12,01,04,25,-1.82,1,-0.38,1,-2.14,1,18.87,1,105.9,8,18.39,1,3.23,1,211.5,1,5.71,1,1015.2,1,12.63,1,120.18,1
2006,12,01,04,30,-2.23,1,-0.56,1,-2.39,1,18.79,1,106,8,18.41,1,3.25,1,214.6,1,5.71,1,1015.1,1,12.58,1,119.18,1
2006,12,01,04,35,-2.01,1,-0.49,1,-2.41,1,18.81,1,106.1,8,18.47,1,3.23,1,213.2,1,5.33,1,1015,1,12.62,1,118.18,1
2006,12,01,04,40,-2.07,1,-0.43,1,-2.39,1,18.85,1,106.1,8,18.49,1,3.05,1,221.7,1,5.14,1,1015,1,12.62,1,117.18,1
2006,12,01,04,45,-2.03,1,-0.44,1,-2.28,1,18.88,1,106.1,8,18.49,1,3.71,1,210.6,1,5.9,1,1014.9,1,12.62,1,116.19,1
2006,12,01,04,50,-1.92,1,-0.5,1,-2.16,1,18.89,1,106,8,18.47,1,3.48,1,220,1,6.28,1,1014.9,1,12.62,1,115.19,1
2006,12,01,04,55,-2.44,1,-0.84,1,-2.44,1,18.86,1,106,8,18.46,1,3.43,1,222.6,1,4.95,1,1014.8,1,12.62,1,114.2,1
2006,12,01,05,00,-2.42,1,-1.02,1,-2.44,1,18.84,1,106,8,18.46,1,2.91,1,222.7,1,4.76,1,1014.8,1,12.62,1,113.21,1
2006,12,01,05,05,-2.48,1,-1.21,1,-2.44,1,18.8,1,106,8,18.46,1,3.11,1,222.3,1,5.33,1,1014.8,1,12.62,1,112.22,1
2006,12,01,05,10,-2.34,1,-1.2,1,-2.44,1,18.73,1,106.1,8,18.46,1,3.32,1,214.1,1,5.14,1,1014.7,1,12.62,1,111.24,1
2006,12,01,05,15,-2.26,1,-1.24,1,-2.44,1,18.63,1,106.2,8,18.46,1,3.67,1,212.4,1,6.09,1,1014.6,1,12.62,1,110.25,1
2006,12,01,05,20,-2.34,1,-1.3,1,-2.44,1,18.54,1,106.3,8,18.46,1,3.31,1,216.4,1,5.71,1,1014.6,1,12.62,1,109.27,1
2006,12,01,05,25,-2.55,1,-1.55,1,-2.44,1,18.47,1,106.4,8,18.44,1,3.46,1,220,1,5.33,1,1014.7,1,12.62,1,108.29,1
2006,12,01,05,30,-2.47,1,-1.58,1,-2.44,1,18.4,1,106.5,8,18.43,1,3.26,1,223.4,1,4.95,1,1014.7,1,12.62,1,107.32,1
2006,12,01,05,35,-2.57,1,-1.81,1,-2.44,1,18.35,1,106.5,8,18.42,1,2.66,1,233.1,1,4.76,1,1014.8,1,12.62,1,106.35,1
2006,12,01,05,40,-2.56,1,-1.86,1,-2.44,1,18.32,1,106.6,8,18.41,1,2.42,1,230.6,1,4,1,1014.9,1,12.62,1,105.38,1
2006,12,01,05,45,-1.92,1,-1.41,1,-2.39,1,18.35,1,106.7,8,18.39,1,2.43,1,225.4,1,3.62,1,1014.9,1,12.62,1,104.41,1
2006,12,01,05,50,-1.74,1,-1.13,1,-1.85,1,18.41,1,106.8,8,18.38,1,2.47,1,229,1,4.38,1,1014.9,1,12.62,1,103.45,1
2006,12,01,05,55,-1.54,1,-0.83,1,-1.67,1,18.45,1,106.8,8,18.35,1,2.33,1,232.3,1,4.19,1,1015,1,12.62,1,102.49,1
2006,12,01,06,00,-0.91,1,-0.41,1,-1.18,1,18.5,1,106.8,8,18.33,1,2.49,1,233,1,4.95,1,1015,1,12.62,1,101.53,1
2006,12,01,06,05,-0.91,1,-0.41,1,-1.01,1,18.56,1,106.8,8,18.32,1,2.18,1,230.7,1,4.57,1,1015,1,12.62,1,100.58,1
2006,12,01,06,10,-0.58,1,-0.05,1,-0.57,1,18.62,1,106.8,8,18.32,1,2.52,1,232.6,1,4.38,1,1015,1,12.62,1,99.63,1
2006,12,01,06,15,-0.51,1,0.23,1,-0.43,1,18.68,1,106.7,8,18.32,1,2.82,1,228.2,1,4.76,1,1015,1,12.62,1,98.69,1
2006,12,01,06,20,-1.21,1,-0.19,1,-1.26,1,18.73,1,106.7,8,18.32,1,3.1,1,223.6,1,4.95,1,1014.8,1,12.62,1,97.75,1
2006,12,01,06,25,-1.74,1,-0.44,1,-1.63,1,18.78,1,106.7,8,18.32,1,2.88,1,228.8,1,5.71,1,1014.9,1,12.62,1,96.81,1
2006,12,01,06,30,-1.74,1,-0.74,1,-1.64,1,18.83,1,106.6,8,18.33,1,2.76,1,233.5,1,4,1,1014.9,1,12.61,1,95.88,1
2006,12,01,06,35,-1.74,1,-1.1,1,-1.72,1,18.82,1,106.5,8,18.34,1,2.65,1,233.5,1,4.95,1,1014.9,1,12.61,1,94.96,1
2006,12,01,06,40,-1.46,1,-1.15,1,-1.6,1,18.81,1,106.5,8,18.36,1,2.88,1,227.5,1,5.14,1,1014.9,1,12.61,1,94.04,1
2006,12,01,06,45,-0.18,1,-1.33,1,-0.43,1,18.78,1,106.5,8,18.38,1,2.87,1,233.5,1,5.14,1,1014.9,1,12.61,1,93.12,1
2006,12,01,06,50,2,1,-1.15,1,1.85,1,18.76,1,106.4,8,18.39,1,2.96,1,229.7,1,5.33,1,1014.9,1,12.61,1,92.21,1
2006,12,01,06,55,3.08,1,-0.42,1,3.08,1,18.76,1,106.4,8,18.39,1,2.91,1,237.3,1,4.76,1,1014.8,1,12.61,1,91.31,1
2006,12,01,07,00,4.37,1,-0.3,1,4.37,8,18.75,1,106.4,8,18.39,1,3.14,1,233.9,1,5.71,1,1014.7,1,12.61,1,89.87,1
2006,12,01,07,05,5.54,1,-0.2,1,5.54,1,18.75,1,106.3,8,18.41,1,2.66,1,233.3,1,4.38,1,1014.8,1,12.61,1,89.1,1
2006,12,01,07,10,11.19,1,-0.23,1,11.19,1,18.75,1,106.3,8,18.43,1,2.8,1,229.6,1,4.76,1,1014.8,1,12.61,1,88.3,1
2006,12,01,07,15,19.88,1,0.42,1,19.84,1,18.78,1,106.4,8,18.45,1,3.2,1,230,1,5.14,1,1014.8,1,12.61,1,87.48,1
2006,12,01,07,20,28.43,1,6.19,1,27.83,1,18.81,1,106.4,8,18.47,1,3.48,1,228.7,1,5.71,1,1014.8,1,12.63,1,86.65,1
2006,12,01,07,25,38.86,1,22.75,1,36.68,1,18.82,1,106.3,8,18.5,1,2.89,1,232.5,1,4.57,1,1014.9,1,12.69,1,85.82,1
2006,12,01,07,30,49.8,1,45.9,1,44.87,1,18.84,1,106.3,8,18.53,1,2.98,1,233.1,1,4.95,1,1014.8,1,12.74,1,84.98,1
2006,12,01,07,35,63.15,1,72.72,1,54.24,1,18.89,1,106.3,8,18.59,1,3.25,1,228.1,1,5.14,1,1014.8,1,12.89,1,84.15,1
2006,12,01,07,40,75.56,1,89.17,1,63.33,1,18.95,1,106.3,8,18.61,1,3.39,1,232.1,1,5.14,1,1014.8,1,13.05,1,83.32,1
2006,12,01,07,45,84.31,1,89.41,1,70.62,1,19.01,1,106.2,8,18.65,1,3.03,1,229.4,1,6.09,1,1014.8,1,13.15,1,82.49,1
2006,12,01,07,50,91.59,1,83.06,1,78.07,1,19.08,1,106.1,8,18.69,1,3.53,1,224.8,1,6.28,1,1014.7,1,13.19,1,81.67,1
2006,12,01,07,55,105.37,1,42.05,1,98.51,1,19.18,1,106,8,18.74,1,3.44,1,232.2,1,5.9,1,1014.7,1,13.19,1,80.86,1
2006,12,01,08,00,76.82,1,2.12,1,76.82,1,19.29,1,105.9,8,18.8,1,3.75,1,230.7,1,6.66,1,1014.6,1,13.05,1,80.05,1
2006,12,01,08,05,84.01,3,1.32,3,84.01,3,19.41,1,105.8,8,18.87,1,2.78,1,231.8,1,5.71,1,1014.6,1,12.99,1,79.25,1
2006,12,01,08,10,85.41,3,0.84,3,85.41,3,19.54,1,105.7,8,18.95,1,3.86,1,232.2,1,6.66,1,1014.6,1,12.97,1,78.46,1
2006,12,01,08,15,91.84,3,0.75,3,91.84,3,19.69,1,105.5,8,19.03,1,3.89,1,234.3,1,8.76,1,1014.6,1,12.98,1,77.68,1
2006,12,01,08,20,83.81,3,1.06,3,83.81,3,19.88,1,105.3,8,19.12,1,4.2,1,235.8,1,7.43,1,1014.5,1,12.98,1,76.91,1
2006,12,01,08,25,77.72,3,0.42,3,77.72,3,19.98,1,105.1,8,19.21,1,4.23,1,235,1,7.81,1,1014.5,1,12.94,1,76.15,1
2006,12,01,08,30,89.66,3,0.41,3,89.66,3,20.05,1,105,1,19.31,1,3.7,1,236.8,1,5.9,1,1014.4,1,12.95,1,75.4,1
2006,12,01,08,35,84.98,3,0.28,3,84.98,3,20.1,1,104.9,1,19.41,1,4.24,1,240.5,1,7.24,1,1014.4,1,12.93,1,74.65,1
2006,12,01,08,40,99.12,3,0.29,3,99.12,3,20.16,1,104.9,1,19.51,1,4.2,1,232.3,1,6.28,1,1014.3,1,12.96,1,73.92,1
2006,12,01,08,45,138.78,3,11.65,3,135.53,3,20.26,1,104.8,1,19.61,1,4.35,1,233.5,1,7.43,1,1014.2,1,13.12,1,73.2,1
2006,12,01,08,50,122.42,3,24.78,3,114.86,3,20.38,1,104.7,1,19.72,1,4.05,1,235.2,1,7.24,1,1014.2,1,13.22,1,72.5,1
2006,12,01,08,55,73.29,3,0.82,3,73.29,3,20.49,1,104.5,1,19.83,1,3.75,1,230,1,6.66,1,1014.2,1,13.03,1,71.8,1
2006,12,01,09,00,111.93,3,5.07,3,111.93,3,20.59,1,104.4,1,19.94,1,3.7,1,229.3,1,6.86,1,1014.2,1,13.07,1,71.12,1
2006,12,01,09,05,152.75,3,23.22,3,144.51,3,20.71,1,104.1,1,20.05,1,4.09,1,232.2,1,6.28,1,1014.1,1,13.27,1,70.44,1
2006,12,01,09,10,93.39,3,1.43,3,93.39,3,20.86,1,103.7,1,20.17,1,3.9,1,237.1,1,8.19,1,1014.1,1,13.09,1,69.79,1
2006,12,01,09,15,102.17,3,0.81,3,102.17,3,20.94,1,103.4,1,20.28,1,3.66,1,233.8,1,7.24,1,1014.1,1,13.04,1,69.14,1
2006,12,01,09,20,93.59,3,0.33,3,93.59,3,21.04,1,103.1,1,20.39,1,4.15,1,232.7,1,7.24,1,1014.1,1,13.01,1,68.51,1
2006,12,01,09,25,86.27,3,0.15,3,86.27,3,21.16,1,102.8,1,20.5,1,4.2,1,235.2,1,7.24,1,1014.1,1,12.99,1,67.9,1
2006,12,01,09,30,145.45,3,9.26,3,145.45,3,21.29,1,102.5,1,20.61,1,4.66,1,235.4,1,8,1,1014,1,13.14,1,67.29,1
2006,12,01,09,35,152.05,3,2.21,3,152.05,3,21.41,1,102,1,20.72,1,4.84,1,232.4,1,8.38,1,1013.8,1,13.15,1,66.71,1
2006,12,01,09,40,207.92,3,76.21,3,168.27,3,21.5,1,101.7,1,20.84,1,5.48,1,229.7,1,10.28,1,1013.7,1,13.32,1,66.14,1
2006,12,01,09,45,323.97,19,324.96,18,161.05,18,21.68,1,101.3,1,20.96,1,5.16,1,230.1,1,8.19,1,1013.6,1,13.37,1,65.58,1
2006,12,01,09,50,258.76,15,132.65,14,183.1,14,21.87,1,100.6,1,21.09,1,5.72,1,227.7,1,10.66,1,1013.6,1,13.36,1,65.05,1
2006,12,01,09,55,345.16,19,200.57,18,234.04,18,21.96,1,100.4,1,21.25,1,5,1,239.6,1,9.14,1,1013.6,1,13.35,1,64.52,1
2006,12,01,10,00,243.09,3,58.64,3,207.81,3,22.16,1,99.7,1,21.43,1,5.53,1,230.2,1,10.09,1,1013.6,1,13.35,1,64.02,1
2006,12,01,10,05,218.77,3,15.87,3,218.77,3,22.12,1,99.7,1,21.63,1,6.42,1,235.2,1,9.52,1,1013.5,1,13.34,1,63.54,1
2006,12,01,10,10,161.23,3,0.5,3,161.23,3,22.06,1,99.9,1,21.82,1,5.09,1,229,1,9.52,1,1013.6,1,13.28,1,63.07,1
2006,12,01,10,15,127.44,3,-0.13,3,127.44,3,22.05,1,99.8,1,22,1,4.63,1,234.7,1,8.19,1,1013.6,1,13.12,1,62.62,1
2006,12,01,10,20,331.37,3,128.67,3,260.35,3,22.07,1,99.9,1,22.15,1,4.42,1,241.7,1,8.57,1,1013.6,1,13.36,1,62.19,1
2006,12,01,10,25,210.04,3,9.62,3,210.04,3,22.25,1,99.2,1,22.3,1,5.94,1,238,1,11.24,1,1013.5,1,13.34,1,61.78,1
2006,12,01,10,30,295.73,19,214.44,18,162.61,18,22.33,1,98.9,1,22.46,1,6.2,1,232.7,1,8.76,1,1013.2,1,13.34,1,61.39,1
2006,12,01,10,35,352.44,19,356.02,18,147.13,18,22.54,1,98.3,1,22.62,1,6.19,1,228.2,1,9.33,1,1013,1,13.34,1,61.02,1
2006,12,01,10,40,411.89,19,463.68,18,153.37,18,22.77,1,97.7,1,22.77,1,6.2,1,229.6,1,10.47,1,1012.8,1,13.33,1,60.67,1
2006,12,01,10,45,476.14,15,585.85,14,156.34,14,23.08,1,96.9,1,22.94,1,6.65,1,238,1,11.43,1,1012.7,1,13.33,1,60.34,1
2006,12,01,10,50,505.38,15,566.01,14,195.26,14,23.34,1,96,1,23.12,1,6.78,1,245.6,1,11.62,1,1012.5,1,13.32,1,60.03,1
2006,12,01,10,55,573.65,15,637,14,224.45,14,23.62,1,95.2,1,23.34,1,6.74,1,232.6,1,11.43,1,1012.4,1,13.31,1,59.75,1
2006,12,01,11,00,457.78,15,465.3,14,189.22,14,23.79,1,94.4,1,23.57,1,7.57,1,237.3,1,13.52,1,1012.2,1,13.29,1,59.48,1
2006,12,01,11,05,387.39,19,348.9,18,170.47,18,23.76,1,94.2,1,23.83,1,7.5,1,229.2,1,11.24,1,1012.1,1,13.29,1,59.24,1
2006,12,01,11,10,352.71,15,235.79,14,201.6,14,23.68,1,94.5,1,24.09,1,6.94,1,234.5,1,14.66,1,1012.2,1,13.29,1,59.03,1
2006,12,01,11,15,337.44,11,121.24,10,244.26,10,23.57,1,94.8,1,24.33,1,7.45,1,235.7,1,11.81,1,1012.2,1,13.29,1,58.83,1
2006,12,01,11,20,430.49,15,165.57,14,312.84,14,23.59,1,94.8,1,24.54,1,8.02,1,236.7,1,12.19,1,1012.1,1,13.29,1,58.66,1
2006,12,01,11,25,491.85,19,213.45,18,347.15,18,23.78,1,93.7,1,24.72,1,9.44,1,235.4,1,13.33,1,1011.8,1,13.29,1,58.51,1
2006,12,01,11,30,260.46,3,11.36,3,260.46,3,23.8,1,93.5,1,24.88,1,7.45,1,237.4,1,12.38,1,1011.9,1,13.29,1,58.38,1
2006,12,01,11,35,166.89,3,-2.13,3,166.89,3,23.6,1,93.9,1,25.02,1,6.86,1,237.2,1,11.04,1,1011.7,1,13.3,1,58.28,1
2006,12,01,11,40,172.86,3,-0.64,3,172.86,3,23.55,1,94,1,25.13,1,6.67,1,232.9,1,10.09,1,1011.5,1,13.3,1,58.2,1
2006,12,01,11,45,198,3,-0.11,3,198,3,23.51,1,94.1,1,25.2,1,6.81,1,230.2,1,12.76,1,1011.2,1,13.31,1,58.15,1
2006,12,01,11,50,375.01,11,208.18,10,237.91,10,23.62,1,93.8,1,25.25,1,6.7,1,234,1,10.85,1,1011,1,13.31,1,58.12,1
2006,12,01,11,55,498.46,19,356.91,18,274.83,18,23.79,1,93.1,1,25.28,1,7.09,1,235.4,1,12.57,1,1010.9,1,13.3,1,58.11,1
2006,12,01,12,00,357.69,11,184.25,10,235.27,10,23.98,1,92.6,1,25.35,1,6.03,1,231.5,1,10.09,1,1010.7,1,13.28,1,58.13,1
2006,12,01,12,05,277.63,3,66.39,3,229.14,3,24.03,1,92.4,1,25.45,1,8.01,1,236.8,1,12.76,1,1010.6,1,13.29,1,58.17,1
2006,12,01,12,10,432.62,19,243.11,18,268.26,18,23.91,1,92.8,1,25.54,1,7.48,1,237.3,1,11.04,1,1010.5,1,13.29,1,58.24,1
2006,12,01,12,15,591.36,23,439.39,22,319.66,22,24.06,1,92.1,1,25.6,1,7.87,1,236,1,13.71,1,1010.4,1,13.29,1,58.32,1
2006,12,01,12,20,610.6,19,505.59,18,310.64,18,24.39,1,90.9,1,25.67,1,7.07,1,237.8,1,12,1,1010.4,1,13.28,1,58.44,1
2006,12,01,12,25,459.22,3,225.39,3,326.12,3,24.57,1,90.2,1,25.78,1,7.23,1,231.7,1,12,1,1010.4,1,13.27,1,58.57,1
2006,12,01,12,30,277.34,3,5.77,3,277.34,3,24.38,1,90.8,1,25.9,1,6.77,1,237.6,1,11.24,1,1010.4,1,13.27,1,58.73,1
2006,12,01,12,35,251.19,3,1.98,3,251.19,3,24.2,1,91.2,1,26.03,1,6.7,1,232.8,1,10.66,1,1010.3,1,13.27,1,58.92,1
2006,12,01,12,40,126.54,3,-3.65,3,126.54,3,24.07,1,91.4,1,26.12,1,6.76,1,231.1,1,11.62,1,1010.2,1,13.14,1,59.12,1
2006,12,01,12,45,113.62,3,-6.95,3,113.62,3,23.73,1,92.8,1,26.19,1,8.07,1,239.8,1,16,1,1010.1,1,13.16,1,59.35,1
2006,12,01,12,50,61.49,32,-19.53,7,62.72,33,22.74,1,98.5,1,26.2,1,7.23,1,241.9,1,13.14,1,1010.1,1,12.94,1,59.6,1
2006,12,01,12,55,104.9,2,-19.89,7,104.9,2,21.83,1,101.8,1,26.13,1,7.53,1,248.4,1,11.24,1,1010.2,1,13.08,1,59.88,1
2006,12,01,13,00,210.6,3,-7.78,3,210.6,3,21.34,1,104.1,1,25.98,1,6.18,1,243,1,10.47,1,1010.1,1,13.33,1,60.17,1
2006,12,01,13,05,184.79,3,-2.96,3,184.79,3,21.27,1,104.5,1,25.74,1,5.84,1,245.3,1,10.28,1,1009.9,1,13.34,1,60.49,1
2006,12,01,13,10,213.99,3,0.75,3,213.99,3,21.4,1,103.7,1,25.46,1,6.68,1,241.7,1,10.47,1,1009.6,1,13.35,1,60.83,1
2006,12,01,13,15,219.52,3,1.81,3,219.52,3,21.71,1,101.8,1,25.16,1,6.01,1,246,1,10.09,1,1009.5,1,13.36,1,61.19,1
2006,12,01,13,20,218.59,3,2.96,3,218.59,3,21.94,1,99.7,1,24.87,1,6.55,1,237.1,1,11.04,1,1009.4,1,13.36,1,61.57,1
2006,12,01,13,25,214.11,3,2.27,3,214.11,3,22.13,1,98.1,1,24.57,1,7.3,1,237.6,1,11.81,1,1009.3,1,13.37,1,61.97,1
2006,12,01,13,30,184.31,3,1.73,3,184.31,3,22.29,1,97.2,1,24.32,1,5.45,1,244.7,1,8.95,1,1009.4,1,13.28,1,62.39,1
2006,12,01,13,35,159.7,3,0.69,3,159.7,3,22.36,1,96.2,1,24.11,1,7.92,1,243.3,1,13.14,1,1009.5,1,13.32,1,62.82,1
2006,12,01,13,40,143.7,3,-0.03,3,143.7,3,22.41,1,96.1,1,23.87,1,5.54,1,243.3,1,10.09,1,1009.6,1,13.39,1,63.28,1
2006,12,01,13,45,209.21,3,1.57,3,209.21,3,22.46,1,95.6,1,23.62,1,5.97,1,240.5,1,10.85,1,1009.5,1,13.39,1,63.76,1
2006,12,01,13,50,231.86,3,4.19,3,231.86,3,22.53,1,95.1,1,23.41,1,5.33,1,237.2,1,9.52,1,1009.3,1,13.39,1,64.25,1
2006,12,01,13,55,218.92,3,2.44,3,218.92,3,22.59,1,94.7,1,23.23,1,5.29,1,234.2,1,10.09,1,1009.1,1,13.39,1,64.76,1
2006,12,01,14,00,251.68,3,86.63,3,202.59,3,22.58,1,94.4,1,23.1,1,6.32,1,237.2,1,11.62,1,1009,1,13.39,1,65.29,1
2006,12,01,14,05,209.12,3,40.6,3,178.99,3,22.54,1,94.4,1,23.03,1,6.06,1,240.6,1,9.52,1,1009,1,13.39,1,65.84,1
2006,12,01,14,10,163.24,3,-0.38,3,163.24,3,22.47,1,94.8,1,22.98,1,5.96,1,239.2,1,8.57,1,1008.9,1,13.39,1,66.4,1
2006,12,01,14,15,143.71,3,-1.6,3,143.71,3,22.35,1,95.3,1,22.95,1,5.76,1,236.1,1,9.52,1,1008.9,1,13.38,1,66.98,1
2006,12,01,14,20,183.57,3,5.74,3,183.57,3,22.27,1,96,1,22.98,1,6.26,1,236.4,1,11.43,1,1008.7,1,13.39,1,67.57,1
2006,12,01,14,25,157.37,3,-1.11,3,157.37,3,22.22,1,96.1,1,22.99,1,8.07,1,235.9,1,13.71,1,1008.6,1,13.38,1,68.18,1
2006,12,01,14,30,120.09,3,-2.53,3,120.09,3,22.14,1,96.3,1,23.02,1,8.67,1,236.6,1,13.33,1,1008.5,1,13.38,1,68.8,1
2006,12,01,14,35,101.95,3,-2.37,3,101.95,3,22.06,1,96.6,1,23.05,1,6.75,1,226.9,1,10.85,1,1008.4,1,13.34,1,69.44,1
2006,12,01,14,40,120.07,3,-2.29,3,120.07,3,21.94,1,97.1,1,23.06,1,7.31,1,232.1,1,10.85,1,1008.3,1,13.39,1,70.09,1
2006,12,01,14,45,215.3,3,119.88,3,173.39,3,21.91,1,97.4,1,23.08,1,6.59,1,233.4,1,10.09,1,1008.3,1,13.39,1,70.75,1
2006,12,01,14,50,147.32,3,10.78,3,145.57,3,22.01,1,97.3,1,23.09,1,6.14,1,232.9,1,9.33,1,1008.2,1,13.39,1,71.43,1
2006,12,01,14,55,95.17,3,-1.04,3,95.17,3,21.94,1,97.7,1,23.11,1,8.3,1,232.4,1,12.76,1,1007.9,1,13.28,1,72.12,1
2006,12,01,15,00,78.96,3,-1.57,3,78.96,3,21.9,1,98,1,23.13,1,6.75,1,235.1,1,11.24,1,1008.1,1,13.01,1,72.82,1
2006,12,01,15,05,112.45,3,-1.32,3,112.45,3,21.87,1,98.2,1,23.13,1,7.37,1,230.8,1,13.14,1,1008,1,13.36,1,73.54,1
2006,12,01,15,10,80.79,3,-1.9,3,80.79,3,21.85,1,98.2,1,23.14,1,7.73,1,230.8,1,12.38,1,1008,1,13.02,1,74.26,1
2006,12,01,15,15,81.4,3,-1.52,3,81.4,3,21.85,1,98.3,1,23.13,1,6.79,1,235.8,1,10.66,1,1008.1,1,12.95,1,75,1
2006,12,01,15,20,71.87,3,-1.3,3,71.87,3,21.88,1,98.3,1,23.1,1,7.61,1,234.3,1,12.57,1,1008,1,12.91,1,75.74,1
2006,12,01,15,25,52.38,3,-2,3,52.38,3,21.86,1,98.4,1,23.08,1,8.74,1,239.6,1,13.9,1,1008,1,12.86,1,76.5,1
2006,12,01,15,30,32.61,3,-2.04,3,32.61,3,21.81,1,98.6,1,23.06,1,6.72,1,233.5,1,11.81,1,1008,1,12.83,1,77.27,1
2006,12,01,15,35,21.27,3,-2.04,3,21.27,3,21.78,1,98.9,1,23.04,1,7.62,1,235,1,12.57,1,1007.9,1,12.81,1,78.04,1
2006,12,01,15,40,13.48,7,-1.63,29,13.48,29,21.79,1,99,1,23,1,7.24,1,234.6,1,11.24,1,1007.9,1,12.8,1,78.83,1
2006,12,01,15,45,20.23,3,-0.59,3,20.23,3,21.82,1,99.3,1,22.96,1,6.91,1,239.3,1,12.19,1,1007.9,1,12.8,1,79.62,1
2006,12,01,15,50,94.63,1,57.29,1,82.24,1,21.62,1,100.7,1,22.92,1,6.59,1,229.3,1,10.47,1,1007.8,1,13.02,1,80.42,1
2006,12,01,15,55,111.24,1,14.91,1,110.62,1,21.44,1,101.8,1,22.86,1,6.43,1,242.4,1,12.76,1,1008.1,1,13.4,1,81.23,1
2006,12,01,16,00,86.53,1,48.01,1,79.91,1,21.38,1,102.3,1,22.78,1,5.86,1,241.1,1,8.95,1,1008.3,1,13.4,1,82.05,1
2006,12,01,16,05,78.58,1,64.04,1,68.42,1,21.45,1,102,1,22.7,1,6.59,1,238.5,1,11.62,1,1008.3,1,13.32,1,82.87,1
2006,12,01,16,10,28.28,1,-0.29,1,28.28,1,21.53,1,101.6,1,22.6,1,6.75,1,233,1,11.81,1,1008.1,1,12.87,1,83.7,1
2006,12,01,16,15,18.16,1,-1.79,1,18.16,1,21.56,1,101.2,1,22.5,1,7.08,1,235.8,1,11.62,1,1008.1,1,12.82,1,84.53,1
2006,12,01,16,20,19.36,1,-1.98,1,19.36,1,21.6,1,100.9,1,22.4,1,7.07,1,239.9,1,11.24,1,1008.1,1,12.8,1,85.37,1
2006,12,01,16,25,16.4,1,-1.8,1,16.4,1,21.63,1,100.7,1,22.29,1,6.18,1,233.2,1,10.09,1,1008.3,1,12.79,1,86.2,1
2006,12,01,16,30,13.81,1,-1.39,1,13.81,1,21.63,1,100.6,1,22.2,1,6.64,1,241.2,1,10.09,1,1008.3,1,12.75,1,87.04,1
2006,12,01,16,35,14,1,-1.04,1,14,1,21.65,1,100.4,1,22.13,1,6.45,1,236.7,1,10.66,1,1008.3,1,12.77,1,87.86,1
2006,12,01,16,40,9.91,1,-0.84,1,9.91,1,21.66,1,100.4,1,22.03,1,5.18,1,237.4,1,8.95,1,1008.3,1,12.76,1,88.68,1
2006,12,01,16,45,6.54,1,-0.72,1,6.54,1,21.69,1,100.3,1,21.93,1,5.64,1,237.5,1,8,1,1008.3,1,12.76,1,89.46,1
2006,12,01,16,50,3.27,1,-0.81,1,3.27,8,21.73,1,100.1,1,21.84,1,6.15,1,240,1,11.04,1,1008.3,1,12.76,1,90.82,1
2006,12,01,16,55,1.38,1,-0.51,1,1.38,1,21.77,1,100,1,21.76,1,6.13,1,242,1,9.52,1,1008.4,1,12.75,1,91.72,1
2006,12,01,17,00,0.64,1,0.41,1,0.67,1,21.84,1,99.8,1,21.69,1,7.12,1,244.6,1,11.43,1,1008.4,1,12.75,1,92.63,1
2006,12,01,17,05,0.36,1,0.14,1,0.3,1,21.89,1,99.5,1,21.63,1,6.27,1,243.8,1,9.71,1,1008.5,1,12.75,1,93.54,1
2006,12,01,17,10,0.05,1,-0.01,1,0.04,1,21.91,1,99.5,1,21.58,1,6.03,1,237.4,1,9.52,1,1008.4,1,12.74,1,94.46,1
2006,12,01,17,15,0,1,-0.07,1,-0.01,1,21.92,1,99.5,1,21.54,1,5.27,1,240.2,1,8.19,1,1008.3,1,12.74,1,95.39,1
2006,12,01,17,20,-0.08,1,-0.46,1,-0.06,1,21.93,1,99.5,1,21.51,1,6.04,1,239.6,1,11.24,1,1008.2,1,12.74,1,96.31,1
2006,12,01,17,25,-1.46,1,-1.75,1,-0.95,1,21.89,1,99.8,1,21.49,1,5.22,1,235,1,9.52,1,1008.2,1,12.74,1,97.25,1
2006,12,01,17,30,-2.17,1,-2.31,1,-1.25,1,21.81,1,100.3,1,21.49,1,6.79,1,243.4,1,11.04,1,1008.3,1,12.73,1,98.18,1
2006,12,01,17,35,-2.17,1,-4.05,1,-1.28,1,21.73,1,100.9,1,21.49,1,6.1,1,242.3,1,10.28,1,1008.5,1,12.73,1,99.13,1
2006,12,01,17,40,-1.19,1,-4.76,1,-0.49,1,21.35,1,102.7,1,21.49,1,5.75,1,261.2,1,8.38,1,1008.8,1,12.73,1,100.07,1
2006,12,01,17,45,-0.26,1,-2.06,1,0.01,1,21.06,1,104.3,1,21.47,1,5.03,1,256.9,1,8.38,1,1008.7,1,12.73,1,101.02,1
2006,12,01,17,50,-0.03,1,-0.97,1,0.00,1,20.96,1,104.9,1,21.45,1,4.71,1,257.1,1,7.62,1,1008.8,1,12.73,1,101.97,1
2006,12,01,17,55,-0.05,1,-0.8,1,0.00,1,20.89,1,105.3,8,21.42,1,4.07,1,264.4,1,6.09,1,1009.1,1,12.73,1,102.93,1